Content
SEND FEEDBACK

Australia Flag

COROWA, NEW SOUTH WALES


Home > Oceania > Australia > New South Wales
Elevation: 143 meters     Latitude: 35 59S     Longitude: 146 21E

WEATHER
 
SELECT A DAY
Number of Records: 151,262;   Date Range: 2/21/03 - 3/22/16
 
SHARE

PRINT THIS DATA

[ ← Previous Day ]
WEATHER ALMANAC - 13 FEBRUARY, 2013
[ Next Day → ]
[ °F ]   °C
Weather ElementAverageHighLow
Temperature24.8 °C32.2 °C (6:00 pm)16 °C (7:00 am)
Dewpoint9.4 °C12 °C (1:00 am)5 °C (3:00 pm)
Humidity39.2 %72 % (7:00 am)11 % (3:00 pm)
Barometer1018.3 hPa1021 hPa (8:00 am)1015.2 hPa (5:00 pm)
Wind Speed10.8 km/h22.2 km/h (9:00 am)
Weather ElementAverage
Wind DirectionESE (107.3 °)

Weather ElementTotal
Precipitation---
Cooling Degree Days5.8 (Base 18.3)
Growing Degree Days14.1 (Base 10)
Averaged from 31 records on 13 February, 2013
WEATHER CONDITIONS BREAKOUT
WIND DIRECTION BREAKOUT
WEATHER BY HOUR - 13 FEBRUARY, 2013
[ °F ]   °C
Local TimeTemperatureDewpointHumidityBarometerVisibilityWind DirectionWind SpeedGust SpeedPrecipitationEventsConditions
12:00 AM22 °C11 °C50 %1017.3 hPaSouth (180°)7.4 km/h
1:00 AM21 °C12 °C56 %1017.3 hPaSSE (150°)5.6 km/h
2:00 AM21 °C12 °C56 %1017.3 hPaSE (130°)5.6 km/h
3:00 AM18.9 °C11.7 °C52 %1017.3 hPaCalm
3:00 AM19 °C11 °C60 %1017.3 hPaCalm
4:00 AM17 °C11 °C68 %1017.9 hPaCalm
5:00 AM18 °C11 °C64 %1017.9 hPaCalm
6:00 AM17 °C11 °C68 %1019 hPaNNW (330°)9.3 km/h
6:00 AM16.7 °C11.1 °C62 %1019 hPaNNW (330°)9.3 km/h
7:00 AM16 °C11 °C72 %1020 hPaCalm
8:00 AM21 °C11 °C53 %1021 hPaNorth (10°)18.5 km/h
9:00 AM21.7 °C10 °C36 %1021 hPaNorth (10°)22.2 km/h
9:00 AM22 °C10 °C46 %1021 hPaNorth (10°)22.2 km/h
10:00 AM24 °C10 °C41 %1021 hPaNorth (10°)16.7 km/h
11:00 AM26 °C10 °C36 %1021 hPaNNE (20°)18.5 km/h
12:00 PM28 °C9 °C30 %1020 hPaNorth (10°)16.7 km/h
12:00 PM27.8 °C9.4 °C21 %1020.3 hPaNorth (10°)16.7 km/h
1:00 PM29 °C7 °C25 %1020 hPaNNE (20°)20.4 km/h
2:00 PM31 °C7 °C22 %1019 hPaNNE (20°)14.8 km/h
3:00 PM31.1 °C5.6 °C11 %1017.6 hPaNorth (10°)14.8 km/h
3:00 PM31 °C5 °C19 %1017.9 hPaNorth (10°)14.8 km/h
4:00 PM32 °C6 °C20 %1017.3 hPaNorth (350°)14.8 km/h
5:00 PM32 °C7 °C21 %1015.2 hPaNorth (10°)14.8 km/h
6:00 PM32 °C8 °C22 %1015.2 hPaNorth (350°)9.3 km/h
6:00 PM32.2 °C7.8 °C13 %1015.2 hPaNorth (350°)9.3 km/h
7:00 PM32 °C8 °C22 %1015.2 hPaNNE (20°)7.4 km/h
8:00 PM30 °C8 °C25 %1016.3 hPaNorth (360°)7.4 km/h
9:00 PM25 °C8.9 °C26 %1016.3 hPaEast (100°)11.1 km/h
9:00 PM25 °C9 °C36 %1016.3 hPaEast (100°)11.1 km/h
10:00 PM26 °C10 °C36 %1017.3 hPaSE (130°)11.1 km/h
11:00 PM23 °C11 °C47 %1017.9 hPaSouth (190°)5.6 km/h
Hourly data recorded from YWGT, located 0 kilometers away from Corowa, New South Wales




STORIES FROM OUR PARTNERS